Overview Statistics Trail Chart Weather Telemetry Raw packets
 

This is the latest recevied weather packets stored in our database for station/object W0WC. If no packets are shown the sender has not sent any weather packets the latest 10 day(s).

<< 4 5 6 7 8 9 10 >>
Time Temp. Humidity Pressure Rain* Wind** Luminosity Snow
1788659089 32.22° C 48% 1012.8 hPa 0 mm - 0 W/m² -
1788658785 32.78° C 47% 1012.8 hPa 0 mm - 0 W/m² -
1788658480 32.78° C 47% 1012.9 hPa 0 mm - 0 W/m² -
1788658176 33.33° C 46% 1012.8 hPa 0 mm - 0 W/m² -
1788657871 33.33° C 45% 1012.8 hPa 0 mm - 0 W/m² -
1788657570 33.33° C 46% 1012.6 hPa 0 mm - 0 W/m² -
1788657266 33.89° C 45% 1012.7 hPa 0 mm - 0 W/m² -
1788656961 33.89° C 45% 1012.5 hPa 0 mm - 0 W/m² -
1788656657 33.89° C 44% 1012.6 hPa 0 mm - 0 W/m² -
1788656353 33.89° C 44% 1012.6 hPa 0 mm - 0 W/m² -
1788656052 34.44° C 43% 1012.7 hPa 0 mm - 0 W/m² -
1788655750 35° C 41% 1012.5 hPa 0 mm - 1 W/m² -
1788655445 35° C 40% 1012.5 hPa 0 mm - 2 W/m² -
1788655140 35.56° C 39% 1012.5 hPa 0 mm - 3 W/m² -
1788654835 36.11° C 39% 1012.5 hPa 0 mm - 6 W/m² -
1788654555 36.67° C 37% 1012.4 hPa 0 mm - 10 W/m² -
1788654230 36.67° C 37% 1012.6 hPa 0 mm - 14 W/m² -
1788653926 36.67° C 36% 1012.5 hPa 0 mm - 19 W/m² -
1788653621 37.22° C 36% 1012.6 hPa 0 mm - 23 W/m² -
1788653317 37.22° C 36% 1012.6 hPa 0 mm - 27 W/m² -
1788653017 37.22° C 35% 1012.4 hPa 0 mm - 31 W/m² -
1788652716 37.78° C 35% 1012.3 hPa 0 mm - 35 W/m² -
1788652411 37.78° C 34% 1012.7 hPa 0 mm - 45 W/m² -
1788652106 37.78° C 34% 1012.7 hPa 0 mm - 52 W/m² -
1788651802 37.78° C 34% 1012.7 hPa 0 mm - 55 W/m² -

* Rain latest hour (hover to see other rain measurements)
** Current wind speed in m/s (hover to see current wind gust speed)